Tracking 31030 objects as of 16-Jul-2025
HD Live streaming from Space Station
objects crossing your sky now

ONEWEB-0246

Track ONEWEB-0246 now!
10-day predictions
ONEWEB-0246 is classified as:


NORAD ID: 48786
Int'l Code: 2021-045V
Perigee: 1,207.3 km
Apogee: 1,210.5 km
Inclination: 87.9 °
Period: 109.5 minutes
Semi major axis: 7579 km
RCS: Unknown
Launch date: May 28, 2021
Source: United Kingdom (UK)
Launch site: VOSTOCHNY COSMODROME (VOSTO)
Your satellite tracking list
Your tracking list is empty




NASA's NSSDC Master Catalog

Two Line Element Set (TLE):
1 48786U 21045V   25196.92797756 -.00000106  00000-0 -31664-3 0  9992
2 48786  87.9076 326.2165 0002060 101.4407 258.6955 13.15549219200060
Source of the keplerian elements: AFSPC